Saint Bonnet de Bellac- Haute Vienne - France
Donnes mto: mercredi, 26/10/2011
Date Horaire Temp. E. Hum. E. P.atmo. Pluie Vent Direction Direction Ensoleilleme Solaire P. de rose Temp au vent Rafales
26/10/2011 00:00 8,6 C 87 % 1008,1 hPa 0,0 mm 11,9 km/h (2 Bft) O-SO 247 0 min 0 W/m 6,6 C 6,6 C 15,8 km/h (3 Bft)
26/10/2011 00:05 8,6 C 86 % 1008,2 hPa 0,0 mm 14,0 km/h (3 Bft) S-SO 202 0 min 0 W/m 6,4 C 6,3 C 14,0 km/h (3 Bft)
26/10/2011 00:10 8,6 C 86 % 1008,2 hPa 0,0 mm 10,1 km/h (2 Bft) S-SO 202 0 min 0 W/m 6,4 C 6,9 C 13,0 km/h (3 Bft)
26/10/2011 00:15 8,5 C 86 % 1008,2 hPa 0,0 mm 10,8 km/h (2 Bft) SO 225 0 min 0 W/m 6,3 C 6,7 C 12,2 km/h (2 Bft)
26/10/2011 00:20 8,5 C 86 % 1008,3 hPa 0,0 mm 10,4 km/h (2 Bft) S-SO 202 0 min 0 W/m 6,3 C 6,8 C 19,8 km/h (3 Bft)
26/10/2011 00:25 8,5 C 86 % 1008,3 hPa 0,0 mm 8,3 km/h (2 Bft) SO 225 0 min 0 W/m 6,3 C 7,2 C 12,6 km/h (3 Bft)
26/10/2011 00:30 8,5 C 87 % 1008,3 hPa 0,0 mm 7,6 km/h (2 Bft) SO 225 0 min 0 W/m 6,5 C 7,3 C 8,3 km/h (2 Bft)
26/10/2011 00:35 8,5 C 87 % 1008,2 hPa 0,0 mm 5,8 km/h (2 Bft) O-SO 247 0 min 0 W/m 6,5 C 7,8 C 6,8 km/h (2 Bft)
26/10/2011 00:40 8,4 C 87 % 1008,4 hPa 0,0 mm 8,3 km/h (2 Bft) S-SO 202 0 min 0 W/m 6,4 C 7,1 C 8,6 km/h (2 Bft)
26/10/2011 00:45 8,4 C 87 % 1008,4 hPa 0,0 mm 6,5 km/h (2 Bft) S-SO 202 0 min 0 W/m 6,4 C 7,5 C 6,5 km/h (2 Bft)
26/10/2011 00:50 8,4 C 87 % 1008,4 hPa 0,0 mm 6,8 km/h (2 Bft) SO 225 0 min 0 W/m 6,4 C 7,4 C 8,3 km/h (2 Bft)
26/10/2011 00:55 8,3 C 87 % 1008,5 hPa 0,0 mm 4,7 km/h (1 Bft) S-SO 202 0 min 0 W/m 6,3 C 7,9 C 8,3 km/h (2 Bft)
26/10/2011 01:00 8,3 C 88 % 1008,6 hPa 0,0 mm 10,4 km/h (2 Bft) S-SE 157 0 min 0 W/m 6,4 C 6,5 C 18,4 km/h (3 Bft)
26/10/2011 01:05 8,3 C 87 % 1008,6 hPa 0,0 mm 7,2 km/h (2 Bft) SO 225 0 min 0 W/m 6,3 C 7,2 C 12,6 km/h (3 Bft)
26/10/2011 01:10 8,3 C 87 % 1008,7 hPa 0,0 mm 5,8 km/h (2 Bft) S-SO 202 0 min 0 W/m 6,3 C 7,6 C 9,7 km/h (2 Bft)
26/10/2011 01:15 8,3 C 87 % 1008,7 hPa 0,0 mm 6,1 km/h (2 Bft) S-SE 157 0 min 0 W/m 6,3 C 7,5 C 8,3 km/h (2 Bft)
26/10/2011 01:20 8,2 C 87 % 1008,8 hPa 0,0 mm 6,5 km/h (2 Bft) S-SO 202 0 min 0 W/m 6,2 C 7,3 C 8,3 km/h (2 Bft)
26/10/2011 01:25 8,2 C 86 % 1008,8 hPa 0,0 mm 4,3 km/h (1 Bft) S-SO 202 0 min 0 W/m 6,0 C 8,2 C 7,9 km/h (2 Bft)
26/10/2011 01:30 8,1 C 85 % 1008,8 hPa 0,0 mm 9,4 km/h (2 Bft) S 180 0 min 0 W/m 5,7 C 6,5 C 12,6 km/h (3 Bft)
26/10/2011 01:35 8,1 C 85 % 1008,8 hPa 0,0 mm 5,0 km/h (1 Bft) S-SO 202 0 min 0 W/m 5,7 C 7,6 C 7,6 km/h (2 Bft)
26/10/2011 01:40 8,1 C 85 % 1008,8 hPa 0,0 mm 6,8 km/h (2 Bft) SO 225 0 min 0 W/m 5,7 C 7,1 C 6,8 km/h (2 Bft)
26/10/2011 01:45 8,1 C 85 % 1008,9 hPa 0,0 mm 4,0 km/h (1 Bft) SO 225 0 min 0 W/m 5,7 C 8,1 C 9,4 km/h (2 Bft)
26/10/2011 01:50 7,9 C 85 % 1009,0 hPa 0,0 mm 7,2 km/h (2 Bft) S-SO 202 0 min 0 W/m 5,5 C 6,7 C 8,6 km/h (2 Bft)
26/10/2011 01:55 7,9 C 85 % 1009,1 hPa 0,0 mm 6,1 km/h (2 Bft) O-SO 247 0 min 0 W/m 5,5 C 7,0 C 9,0 km/h (2 Bft)
26/10/2011 02:00 7,8 C 85 % 1009,2 hPa 0,0 mm 6,8 km/h (2 Bft) SO 225 0 min 0 W/m 5,4 C 6,7 C 11,9 km/h (2 Bft)
26/10/2011 02:05 7,8 C 85 % 1009,2 hPa 0,0 mm 8,6 km/h (2 Bft) S-SO 202 0 min 0 W/m 5,4 C 6,3 C 13,3 km/h (3 Bft)
26/10/2011 02:10 7,7 C 85 % 1009,3 hPa 0,0 mm 8,6 km/h (2 Bft) SO 225 0 min 0 W/m 5,3 C 6,2 C 11,2 km/h (2 Bft)
26/10/2011 02:15 7,7 C 85 % 1009,3 hPa 0,0 mm 6,8 km/h (2 Bft) S-SO 202 0 min 0 W/m 5,3 C 6,6 C 8,3 km/h (2 Bft)
26/10/2011 02:20 7,6 C 86 % 1009,3 hPa 0,0 mm 3,2 km/h (1 Bft) S-SO 202 0 min 0 W/m 5,4 C 7,6 C 8,6 km/h (2 Bft)
26/10/2011 02:25 7,5 C 86 % 1009,3 hPa 0,0 mm 4,7 km/h (1 Bft) S 180 0 min 0 W/m 5,3 C 7,0 C 11,9 km/h (2 Bft)
26/10/2011 02:30 7,5 C 86 % 1009,4 hPa 0,0 mm 7,6 km/h (2 Bft) SO 225 0 min 0 W/m 5,3 C 6,2 C 10,1 km/h (2 Bft)
26/10/2011 02:35 7,5 C 86 % 1009,3 hPa 0,0 mm 3,6 km/h (1 Bft) SO 225 0 min 0 W/m 5,3 C 7,5 C 8,3 km/h (2 Bft)
26/10/2011 02:40 7,4 C 86 % 1009,5 hPa 0,0 mm 5,0 km/h (1 Bft) S-SO 202 0 min 0 W/m 5,2 C 6,8 C 10,1 km/h (2 Bft)
26/10/2011 02:45 7,4 C 87 % 1009,4 hPa 0,0 mm 8,3 km/h (2 Bft) S-SO 202 0 min 0 W/m 5,4 C 5,9 C 15,8 km/h (3 Bft)
26/10/2011 02:50 7,4 C 87 % 1009,5 hPa 0,0 mm 7,6 km/h (2 Bft) S-SO 202 0 min 0 W/m 5,4 C 6,0 C 8,3 km/h (2 Bft)
26/10/2011 02:55 7,3 C 87 % 1009,5 hPa 0,0 mm 6,1 km/h (2 Bft) S-SO 202 0 min 0 W/m 5,3 C 6,3 C 6,5 km/h (2 Bft)
26/10/2011 03:02 7,3 C 87 % 1009,6 hPa 0,0 mm 5,0 km/h (1 Bft) S-SO 202 0 min 0 W/m 5,3 C 6,7 C 6,5 km/h (2 Bft)
26/10/2011 03:05 7,4 C 87 % 1009,6 hPa 0,0 mm 9,0 km/h (2 Bft) SO 225 0 min 0 W/m 5,4 C 5,7 C 15,8 km/h (3 Bft)
26/10/2011 03:10 7,5 C 87 % 1009,7 hPa 0,0 mm 6,8 km/h (2 Bft) S-SO 202 0 min 0 W/m 5,5 C 6,4 C 11,5 km/h (2 Bft)
26/10/2011 03:15 7,6 C 87 % 1009,7 hPa 0,0 mm 10,1 km/h (2 Bft) O 270 0 min 0 W/m 5,6 C 5,7 C 10,4 km/h (2 Bft)
26/10/2011 03:20 7,8 C 86 % 1009,6 hPa 0,0 mm 6,8 km/h (2 Bft) S 180 0 min 0 W/m 5,6 C 6,7 C 6,8 km/h (2 Bft)
26/10/2011 03:25 7,8 C 86 % 1009,6 hPa 0,0 mm 7,2 km/h (2 Bft) S-SO 202 0 min 0 W/m 5,6 C 6,6 C 10,4 km/h (2 Bft)
26/10/2011 03:30 7,8 C 85 % 1009,6 hPa 0,0 mm 7,2 km/h (2 Bft) S 180 0 min 0 W/m 5,4 C 6,6 C 7,2 km/h (2 Bft)
26/10/2011 03:35 7,8 C 85 % 1009,6 hPa 0,0 mm 5,4 km/h (2 Bft) SO 225 0 min 0 W/m 5,4 C 7,1 C 10,4 km/h (2 Bft)
26/10/2011 03:40 7,8 C 85 % 1009,6 hPa 0,0 mm 9,7 km/h (2 Bft) S-SE 157 0 min 0 W/m 5,4 C 6,1 C 12,6 km/h (3 Bft)
26/10/2011 03:45 7,8 C 85 % 1009,4 hPa 0,0 mm 9,0 km/h (2 Bft) SE 135 0 min 0 W/m 5,4 C 6,2 C 9,0 km/h (2 Bft)
26/10/2011 03:50 7,8 C 85 % 1009,6 hPa 0,0 mm 6,8 km/h (2 Bft) S-SE 157 0 min 0 W/m 5,4 C 6,7 C 6,8 km/h (2 Bft)
26/10/2011 03:55 7,8 C 85 % 1009,6 hPa 0,0 mm 7,6 km/h (2 Bft) S 180 0 min 0 W/m 5,4 C 6,5 C 14,8 km/h (3 Bft)
26/10/2011 04:00 7,7 C 85 % 1009,6 hPa 0,0 mm 11,9 km/h (2 Bft) S-SE 157 0 min 0 W/m 5,3 C 5,5 C 17,3 km/h (3 Bft)
26/10/2011 04:05 7,7 C 85 % 1009,6 hPa 0,0 mm 5,8 km/h (2 Bft) S-SO 202 0 min 0 W/m 5,3 C 6,9 C 10,4 km/h (2 Bft)
26/10/2011 04:10 7,7 C 85 % 1009,5 hPa 0,0 mm 5,8 km/h (2 Bft) S-SE 157 0 min 0 W/m 5,3 C 6,9 C 11,2 km/h (2 Bft)
26/10/2011 04:15 7,6 C 85 % 1009,5 hPa 0,0 mm 5,8 km/h (2 Bft) O-SO 247 0 min 0 W/m 5,2 C 6,8 C 7,2 km/h (2 Bft)
26/10/2011 04:20 7,7 C 85 % 1009,6 hPa 0,0 mm 7,6 km/h (2 Bft) S-SO 202 0 min 0 W/m 5,3 C 6,4 C 13,0 km/h (3 Bft)
26/10/2011 04:25 7,6 C 85 % 1009,5 hPa 0,0 mm 4,7 km/h (1 Bft) S 180 0 min 0 W/m 5,2 C 7,1 C 6,8 km/h (2 Bft)
26/10/2011 04:30 7,6 C 85 % 1009,6 hPa 0,0 mm 5,0 km/h (1 Bft) S-SO 202 0 min 0 W/m 5,2 C 7,0 C 6,1 km/h (2 Bft)
26/10/2011 04:35 7,5 C 85 % 1009,6 hPa 0,0 mm 6,8 km/h (2 Bft) S-SE 157 0 min 0 W/m 5,1 C 6,4 C 8,6 km/h (2 Bft)
26/10/2011 04:40 7,5 C 85 % 1009,7 hPa 0,0 mm 6,1 km/h (2 Bft) S 180 0 min 0 W/m 5,1 C 6,6 C 7,6 km/h (2 Bft)
26/10/2011 04:45 7,4 C 85 % 1009,6 hPa 0,0 mm 2,9 km/h (1 Bft) SO 225 0 min 0 W/m 5,0 C 7,4 C 6,5 km/h (2 Bft)
26/10/2011 04:50 7,4 C 85 % 1009,6 hPa 0,0 mm 5,8 km/h (2 Bft) S-SO 202 0 min 0 W/m 5,0 C 6,5 C 6,1 km/h (2 Bft)
26/10/2011 04:55 7,5 C 85 % 1009,7 hPa 0,0 mm 4,3 km/h (1 Bft) SO 225 0 min 0 W/m 5,1 C 7,5 C 4,3 km/h (1 Bft)
26/10/2011 05:00 7,5 C 85 % 1009,8 hPa 0,0 mm 5,8 km/h (2 Bft) SO 225 0 min 0 W/m 5,1 C 6,7 C 16,9 km/h (3 Bft)
26/10/2011 05:05 7,5 C 85 % 1009,8 hPa 0,0 mm 7,9 km/h (2 Bft) S-SE 157 0 min 0 W/m 5,1 C 6,1 C 11,9 km/h (2 Bft)
26/10/2011 05:10 7,6 C 85 % 1009,8 hPa 0,0 mm 4,0 km/h (1 Bft) S-SO 202 0 min 0 W/m 5,2 C 7,6 C 10,1 km/h (2 Bft)
26/10/2011 05:15 7,6 C 85 % 1009,8 hPa 0,0 mm 7,6 km/h (2 Bft) SE 135 0 min 0 W/m 5,2 C 6,3 C 10,8 km/h (2 Bft)
26/10/2011 05:20 7,6 C 85 % 1009,9 hPa 0,0 mm 7,6 km/h (2 Bft) N 360 0 min 0 W/m 5,2 C 6,3 C 7,6 km/h (2 Bft)
26/10/2011 05:25 7,6 C 85 % 1009,9 hPa 0,0 mm 5,8 km/h (2 Bft) S-SO 202 0 min 0 W/m 5,2 C 6,8 C 9,7 km/h (2 Bft)
26/10/2011 05:30 7,7 C 85 % 1009,9 hPa 0,0 mm 5,8 km/h (2 Bft) S-SO 202 0 min 0 W/m 5,3 C 6,9 C 7,2 km/h (2 Bft)
26/10/2011 05:35 7,7 C 85 % 1009,9 hPa 0,0 mm 5,0 km/h (1 Bft) S-SE 157 0 min 0 W/m 5,3 C 7,1 C 7,9 km/h (2 Bft)
26/10/2011 05:40 7,8 C 85 % 1009,9 hPa 0,0 mm 3,2 km/h (1 Bft) S-SO 202 0 min 0 W/m 5,4 C 7,8 C 4,3 km/h (1 Bft)
26/10/2011 05:45 7,8 C 84 % 1009,9 hPa 0,0 mm 4,0 km/h (1 Bft) S-SE 157 0 min 0 W/m 5,3 C 7,8 C 9,4 km/h (2 Bft)
26/10/2011 05:50 7,9 C 85 % 1009,9 hPa 0,0 mm 8,3 km/h (2 Bft) S-SO 202 0 min 0 W/m 5,5 C 6,5 C 12,2 km/h (2 Bft)
26/10/2011 05:55 7,9 C 85 % 1010,0 hPa 0,0 mm 5,8 km/h (2 Bft) S 180 0 min 0 W/m 5,5 C 7,1 C 11,5 km/h (2 Bft)
26/10/2011 06:00 7,9 C 85 % 1009,9 hPa 0,0 mm 6,5 km/h (2 Bft) S 180 0 min 0 W/m 5,5 C 6,9 C 13,0 km/h (3 Bft)
26/10/2011 06:05 7,9 C 85 % 1010,0 hPa 0,0 mm 9,0 km/h (2 Bft) S-SO 202 0 min 0 W/m 5,5 C 6,3 C 11,2 km/h (2 Bft)
26/10/2011 06:10 8,0 C 85 % 1010,0 hPa 0,0 mm 4,3 km/h (1 Bft) S-SO 202 0 min 0 W/m 5,6 C 8,0 C 4,3 km/h (1 Bft)
26/10/2011 06:15 8,0 C 85 % 1010,0 hPa 0,0 mm 3,6 km/h (1 Bft) S-SO 202 0 min 0 W/m 5,6 C 8,0 C 6,5 km/h (2 Bft)
26/10/2011 06:20 8,0 C 85 % 1010,0 hPa 0,0 mm 10,4 km/h (2 Bft) E-SE 112 0 min 0 W/m 5,6 C 6,2 C 14,8 km/h (3 Bft)
26/10/2011 06:25 8,1 C 85 % 1010,0 hPa 0,0 mm 6,1 km/h (2 Bft) S 180 0 min 0 W/m 5,7 C 7,3 C 7,2 km/h (2 Bft)
26/10/2011 06:30 8,1 C 85 % 1010,0 hPa 0,0 mm 7,9 km/h (2 Bft) S 180 0 min 0 W/m 5,7 C 6,8 C 12,2 km/h (2 Bft)
26/10/2011 06:35 8,0 C 85 % 1010,0 hPa 0,0 mm 5,8 km/h (2 Bft) S-SO 202 0 min 0 W/m 5,6 C 7,2 C 6,1 km/h (2 Bft)
26/10/2011 06:40 8,0 C 85 % 1010,1 hPa 0,0 mm 5,0 km/h (1 Bft) SO 225 0 min 0 W/m 5,6 C 7,5 C 10,4 km/h (2 Bft)
26/10/2011 06:45 7,9 C 85 % 1010,1 hPa 0,0 mm 6,1 km/h (2 Bft) S-SE 157 0 min 0 W/m 5,5 C 7,0 C 9,7 km/h (2 Bft)
26/10/2011 06:50 7,8 C 85 % 1010,2 hPa 0,0 mm 5,0 km/h (1 Bft) S-SO 202 0 min 0 W/m 5,4 C 7,3 C 5,0 km/h (1 Bft)
26/10/2011 06:55 7,8 C 85 % 1010,3 hPa 0,0 mm 7,6 km/h (2 Bft) SO 225 0 min 0 W/m 5,4 C 6,5 C 11,9 km/h (2 Bft)
26/10/2011 07:00 7,8 C 86 % 1010,3 hPa 0,0 mm 4,0 km/h (1 Bft) S 180 0 min 0 W/m 5,6 C 7,8 C 9,0 km/h (2 Bft)
26/10/2011 07:05 7,8 C 86 % 1010,4 hPa 0,0 mm 4,0 km/h (1 Bft) S-SO 202 0 min 0 W/m 5,6 C 7,8 C 7,6 km/h (2 Bft)
26/10/2011 07:10 7,8 C 87 % 1010,5 hPa 0,0 mm 6,1 km/h (2 Bft) SO 225 0 min 0 W/m 5,8 C 6,9 C 6,1 km/h (2 Bft)
26/10/2011 07:15 7,8 C 87 % 1010,5 hPa 0,0 mm 6,1 km/h (2 Bft) SO 225 0 min 0 W/m 5,8 C 6,9 C 7,6 km/h (2 Bft)
26/10/2011 07:20 7,8 C 87 % 1010,4 hPa 0,0 mm 10,1 km/h (2 Bft) S-SE 157 0 min 0 W/m 5,8 C 6,0 C 11,5 km/h (2 Bft)
26/10/2011 07:25 8,0 C 87 % 1010,4 hPa 0,0 mm 9,7 km/h (2 Bft) S-SE 157 0 min 0 W/m 6,0 C 6,3 C 13,0 km/h (3 Bft)
26/10/2011 07:30 8,1 C 86 % 1010,4 hPa 0,0 mm 10,4 km/h (2 Bft) S 180 0 min 0 W/m 5,9 C 6,3 C 11,5 km/h (2 Bft)
26/10/2011 07:35 8,2 C 86 % 1010,4 hPa 0,0 mm 9,7 km/h (2 Bft) S-SO 202 0 min 0 W/m 6,0 C 6,5 C 15,1 km/h (3 Bft)
26/10/2011 07:40 8,3 C 86 % 1010,4 hPa 0,0 mm 10,4 km/h (2 Bft) S-SE 157 0 min 0 W/m 6,1 C 6,5 C 16,6 km/h (3 Bft)
26/10/2011 07:45 8,4 C 86 % 1010,6 hPa 0,0 mm 5,4 km/h (2 Bft) SO 225 0 min 0 W/m 6,2 C 7,8 C 6,5 km/h (2 Bft)
26/10/2011 07:50 8,4 C 86 % 1010,7 hPa 0,0 mm 8,6 km/h (2 Bft) S-SO 202 0 min 0 W/m 6,2 C 7,0 C 11,5 km/h (2 Bft)
26/10/2011 07:55 8,3 C 86 % 1010,7 hPa 0,0 mm 10,4 km/h (2 Bft) S 180 0 min 0 W/m 6,1 C 6,5 C 17,3 km/h (3 Bft)
26/10/2011 08:00 8,3 C 86 % 1010,6 hPa 0,0 mm 11,9 km/h (2 Bft) S 180 0 min 0 W/m 6,1 C 6,3 C 14,4 km/h (3 Bft)
26/10/2011 08:05 8,3 C 86 % 1010,5 hPa 0,0 mm 10,4 km/h (2 Bft) S 180 0 min 0 W/m 6,1 C 6,5 C 10,4 km/h (2 Bft)
26/10/2011 08:10 8,3 C 86 % 1010,4 hPa 0,0 mm 9,4 km/h (2 Bft) S-SE 157 0 min 0 W/m 6,1 C 6,7 C 15,1 km/h (3 Bft)
26/10/2011 08:15 8,3 C 86 % 1010,5 hPa 0,0 mm 9,7 km/h (2 Bft) S 180 0 min 0 W/m 6,1 C 6,7 C 14,4 km/h (3 Bft)
26/10/2011 08:20 8,3 C 86 % 1010,4 hPa 0,0 mm 6,1 km/h (2 Bft) S-SO 202 0 min 0 W/m 6,1 C 7,5 C 11,5 km/h (2 Bft)
26/10/2011 08:25 8,3 C 86 % 1010,7 hPa 0,0 mm 6,8 km/h (2 Bft) SO 225 0 min 0 W/m 6,1 C 7,3 C 6,8 km/h (2 Bft)
26/10/2011 08:30 8,3 C 87 % 1010,7 hPa 0,0 mm 9,7 km/h (2 Bft) S 180 0 min 0 W/m 6,3 C 6,7 C 12,6 km/h (3 Bft)
26/10/2011 08:35 8,3 C 87 % 1010,8 hPa 0,0 mm 6,8 km/h (2 Bft) SO 225 0 min 0 W/m 6,3 C 7,3 C 11,2 km/h (2 Bft)
26/10/2011 08:40 8,3 C 87 % 1010,8 hPa 0,0 mm 5,0 km/h (1 Bft) SO 225 0 min 0 W/m 6,3 C 7,8 C 8,6 km/h (2 Bft)
26/10/2011 08:45 8,3 C 87 % 1010,8 hPa 0,0 mm 11,2 km/h (2 Bft) S-SO 202 0 min 0 W/m 6,3 C 6,4 C 15,8 km/h (3 Bft)
26/10/2011 08:50 8,3 C 87 % 1011,0 hPa 0,0 mm 6,5 km/h (2 Bft) O-SO 247 0 min 0 W/m 6,3 C 7,4 C 6,5 km/h (2 Bft)
26/10/2011 08:55 8,3 C 86 % 1010,1 hPa 0,0 mm 5,0 km/h (1 Bft) S 180 0 min 0 W/m 6,1 C 7,8 C 10,4 km/h (2 Bft)
26/10/2011 09:00 8,3 C 86 % 1010,3 hPa 0,0 mm 7,6 km/h (2 Bft) S-SO 202 0 min 0 W/m 6,1 C 7,1 C 18,4 km/h (3 Bft)
26/10/2011 09:05 8,2 C 86 % 1010,4 hPa 0,0 mm 2,5 km/h (1 Bft) S-SE 157 0 min 0 W/m 6,0 C 8,2 C 7,2 km/h (2 Bft)
26/10/2011 09:10 8,2 C 86 % 1010,3 hPa 0,0 mm 3,2 km/h (1 Bft) S-SE 157 0 min 0 W/m 6,0 C 8,2 C 6,8 km/h (2 Bft)
26/10/2011 09:15 8,3 C 86 % 1010,4 hPa 0,0 mm 6,8 km/h (2 Bft) S-SE 157 0 min 0 W/m 6,1 C 7,3 C 10,4 km/h (2 Bft)
26/10/2011 09:20 8,4 C 86 % 1010,5 hPa 0,0 mm 1,8 km/h (1 Bft) S-SE 157 0 min 0 W/m 6,2 C 8,4 C 4,3 km/h (1 Bft)
26/10/2011 09:25 8,8 C 86 % 1010,5 hPa 0,0 mm 4,7 km/h (1 Bft) S-SE 157 0 min 0 W/m 6,6 C 8,5 C 8,6 km/h (2 Bft)
26/10/2011 09:30 8,9 C 85 % 1010,6 hPa 0,0 mm 8,3 km/h (2 Bft) S 180 0 min 0 W/m 6,5 C 7,7 C 13,3 km/h (3 Bft)
26/10/2011 09:35 9,3 C 84 % 1010,7 hPa 0,0 mm 1,8 km/h (1 Bft) S-SE 157 0 min 0 W/m 6,7 C 9,3 C 3,6 km/h (1 Bft)
26/10/2011 09:40 9,5 C 84 % 1010,6 hPa 0,0 mm 9,4 km/h (2 Bft) SE 135 0 min 0 W/m 6,9 C 8,1 C 16,9 km/h (3 Bft)
26/10/2011 09:45 9,8 C 83 % 1010,7 hPa 0,0 mm 3,2 km/h (1 Bft) E-SE 112 0 min 0 W/m 7,1 C 9,8 C 3,2 km/h (1 Bft)
26/10/2011 09:50 10,2 C 83 % 1010,7 hPa 0,0 mm 8,3 km/h (2 Bft) S-SE 157 0 min 0 W/m 7,4 C 10,2 C 8,3 km/h (2 Bft)
26/10/2011 09:55 10,4 C 82 % 1010,6 hPa 0,0 mm 3,6 km/h (1 Bft) SE 135 0 min 0 W/m 7,5 C 10,4 C 9,0 km/h (2 Bft)
26/10/2011 10:00 10,6 C 80 % 1010,6 hPa 0,0 mm 11,5 km/h (2 Bft) SE 135 0 min 0 W/m 7,3 C 10,6 C 15,8 km/h (3 Bft)
26/10/2011 10:05 10,8 C 80 % 1010,6 hPa 0,0 mm 5,4 km/h (2 Bft) S-SE 157 0 min 0 W/m 7,5 C 10,8 C 6,5 km/h (2 Bft)
26/10/2011 10:10 11,1 C 79 % 1011,5 hPa 0,0 mm 6,1 km/h (2 Bft) S-SE 157 0 min 0 W/m 7,6 C 11,1 C 10,4 km/h (2 Bft)
26/10/2011 10:15 11,2 C 78 % 1011,6 hPa 0,0 mm 6,1 km/h (2 Bft) S-SO 202 0 min 0 W/m 7,5 C 11,2 C 7,6 km/h (2 Bft)
26/10/2011 10:20 11,4 C 78 % 1011,7 hPa 0,0 mm 2,9 km/h (1 Bft) S-SE 157 0 min 0 W/m 7,7 C 11,4 C 4,0 km/h (1 Bft)
26/10/2011 10:25 11,7 C 77 % 1011,7 hPa 0,0 mm 4,3 km/h (1 Bft) SE 135 0 min 0 W/m 7,8 C 11,7 C 4,3 km/h (1 Bft)
26/10/2011 10:30 11,9 C 76 % 1011,7 hPa 0,0 mm 2,9 km/h (1 Bft) S 180 0 min 0 W/m 7,8 C 11,9 C 4,3 km/h (1 Bft)
26/10/2011 10:35 12,2 C 75 % 1011,7 hPa 0,0 mm 7,9 km/h (2 Bft) S 180 0 min 0 W/m 7,9 C 12,2 C 11,5 km/h (2 Bft)
26/10/2011 10:40 12,3 C 74 % 1011,6 hPa 0,0 mm 5,4 km/h (2 Bft) SE 135 0 min 0 W/m 7,8 C 12,3 C 8,3 km/h (2 Bft)
26/10/2011 10:45 12,5 C 74 % 1011,7 hPa 0,0 mm 8,3 km/h (2 Bft) S-SO 202 0 min 0 W/m 8,0 C 12,5 C 10,1 km/h (2 Bft)
26/10/2011 10:50 12,8 C 75 % 1011,7 hPa 0,0 mm 3,6 km/h (1 Bft) S-SO 202 0 min 0 W/m 8,5 C 12,8 C 6,1 km/h (2 Bft)
26/10/2011 10:55 12,8 C 73 % 1011,8 hPa 0,0 mm 4,7 km/h (1 Bft) O-SO 247 0 min 0 W/m 8,1 C 12,8 C 4,7 km/h (1 Bft)
26/10/2011 11:00 12,9 C 73 % 1011,7 hPa 0,0 mm 7,6 km/h (2 Bft) E-SE 112 0 min 0 W/m 8,2 C 12,9 C 13,3 km/h (3 Bft)
26/10/2011 11:05 13,1 C 73 % 1011,7 hPa 0,0 mm 8,6 km/h (2 Bft) S 180 0 min 0 W/m 8,4 C 13,1 C 13,7 km/h (3 Bft)
26/10/2011 11:10 13,3 C 73 % 1011,7 hPa 0,0 mm 7,2 km/h (2 Bft) S-SE 157 0 min 0 W/m 8,6 C 13,3 C 13,0 km/h (3 Bft)
26/10/2011 11:15 13,4 C 72 % 1011,7 hPa 0,0 mm 6,5 km/h (2 Bft) S-SE 157 0 min 0 W/m 8,5 C 13,4 C 15,5 km/h (3 Bft)
26/10/2011 11:20 13,6 C 71 % 1011,7 hPa 0,0 mm 8,6 km/h (2 Bft) S 180 0 min 0 W/m 8,4 C 13,6 C 11,5 km/h (2 Bft)
26/10/2011 11:25 13,9 C 71 % 1011,7 hPa 0,0 mm 5,0 km/h (1 Bft) S 180 0 min 0 W/m 8,7 C 13,9 C 7,6 km/h (2 Bft)
26/10/2011 11:30 14,2 C 72 % 1011,7 hPa 0,0 mm 5,0 km/h (1 Bft) S-SE 157 0 min 0 W/m 9,2 C 14,2 C 10,8 km/h (2 Bft)
26/10/2011 11:35 14,4 C 71 % 1011,7 hPa 0,0 mm 2,9 km/h (1 Bft) S-SE 157 0 min 0 W/m 9,2 C 14,4 C 4,3 km/h (1 Bft)
26/10/2011 11:40 14,8 C 70 % 1011,7 hPa 0,0 mm 3,2 km/h (1 Bft) S 180 0 min 0 W/m 9,4 C 14,8 C 9,4 km/h (2 Bft)
26/10/2011 11:45 14,9 C 69 % 1011,7 hPa 0,0 mm 8,3 km/h (2 Bft) S 180 0 min 0 W/m 9,3 C 14,9 C 13,3 km/h (3 Bft)
26/10/2011 11:50 15,2 C 69 % 1011,7 hPa 0,0 mm 2,2 km/h (1 Bft) S-SE 157 0 min 0 W/m 9,6 C 15,2 C 6,8 km/h (2 Bft)
26/10/2011 11:55 15,4 C 68 % 1011,7 hPa 0,0 mm 5,8 km/h (2 Bft) S-SE 157 0 min 0 W/m 9,5 C 15,4 C 5,8 km/h (2 Bft)
26/10/2011 12:00 15,6 C 66 % 1011,7 hPa 0,0 mm 7,2 km/h (2 Bft) S-SE 157 0 min 0 W/m 9,3 C 15,6 C 11,5 km/h (2 Bft)
26/10/2011 12:05 15,6 C 67 % 1011,9 hPa 0,0 mm 3,6 km/h (1 Bft) S-SE 157 0 min 0 W/m 9,5 C 15,6 C 6,8 km/h (2 Bft)
26/10/2011 12:10 15,7 C 66 % 1011,8 hPa 0,0 mm 11,2 km/h (2 Bft) S 180 0 min 0 W/m 9,4 C 15,7 C 17,6 km/h (3 Bft)
26/10/2011 12:15 15,8 C 65 % 1011,8 hPa 0,0 mm 8,6 km/h (2 Bft) S 180 0 min 0 W/m 9,2 C 15,8 C 10,1 km/h (2 Bft)
26/10/2011 12:20 15,9 C 67 % 1011,8 hPa 0,0 mm 2,5 km/h (1 Bft) S-SE 157 0 min 0 W/m 9,8 C 15,9 C 2,5 km/h (1 Bft)
26/10/2011 12:25 16,1 C 64 % 1011,9 hPa 0,0 mm 9,0 km/h (2 Bft) S-SE 157 0 min 0 W/m 9,3 C 16,1 C 9,0 km/h (2 Bft)
26/10/2011 12:30 16,2 C 65 % 1011,9 hPa 0,0 mm 9,0 km/h (2 Bft) S-SO 202 0 min 0 W/m 9,6 C 16,2 C 12,6 km/h (3 Bft)
26/10/2011 12:35 16,3 C 65 % 1011,9 hPa 0,0 mm 8,6 km/h (2 Bft) S 180 0 min 0 W/m 9,7 C 16,3 C 13,0 km/h (3 Bft)
26/10/2011 12:40 16,4 C 64 % 1011,9 hPa 0,0 mm 7,2 km/h (2 Bft) S-SO 202 0 min 0 W/m 9,6 C 16,4 C 8,6 km/h (2 Bft)
26/10/2011 12:45 16,6 C 65 % 1011,9 hPa 0,0 mm 7,6 km/h (2 Bft) SE 135 0 min 0 W/m 10,0 C 16,6 C 13,0 km/h (3 Bft)
26/10/2011 12:50 16,7 C 65 % 1012,0 hPa 0,0 mm 6,8 km/h (2 Bft) SE 135 0 min 0 W/m 10,1 C 16,7 C 13,3 km/h (3 Bft)
26/10/2011 12:55 16,8 C 63 % 1012,1 hPa 0,0 mm 11,9 km/h (2 Bft) S-SE 157 0 min 0 W/m 9,7 C 16,8 C 11,9 km/h (2 Bft)
26/10/2011 13:00 16,7 C 61 % 1012,1 hPa 0,0 mm 9,0 km/h (2 Bft) S-SE 157 0 min 0 W/m 9,1 C 16,7 C 14,8 km/h (3 Bft)
26/10/2011 13:05 16,6 C 63 % 1012,2 hPa 0,0 mm 7,6 km/h (2 Bft) S 180 0 min 0 W/m 9,5 C 16,6 C 13,0 km/h (3 Bft)
26/10/2011 13:10 16,5 C 63 % 1012,1 hPa 0,0 mm 5,4 km/h (2 Bft) S 180 0 min 0 W/m 9,4 C 16,5 C 10,4 km/h (2 Bft)
26/10/2011 13:15 16,4 C 62 % 1012,0 hPa 0,0 mm 10,1 km/h (2 Bft) S 180 0 min 0 W/m 9,1 C 16,4 C 14,8 km/h (3 Bft)
26/10/2011 13:20 16,4 C 62 % 1012,1 hPa 0,0 mm 13,7 km/h (3 Bft) S 180 0 min 0 W/m 9,1 C 16,4 C 18,7 km/h (3 Bft)
26/10/2011 13:25 16,4 C 63 % 1012,0 hPa 0,0 mm 6,8 km/h (2 Bft) S-SE 157 0 min 0 W/m 9,3 C 16,4 C 16,6 km/h (3 Bft)
26/10/2011 13:30 16,4 C 63 % 1011,9 hPa 0,0 mm 8,3 km/h (2 Bft) S-SO 202 0 min 0 W/m 9,3 C 16,4 C 13,7 km/h (3 Bft)
26/10/2011 13:35 16,4 C 64 % 1011,8 hPa 0,0 mm 4,3 km/h (1 Bft) S 180 0 min 0 W/m 9,6 C 16,4 C 8,6 km/h (2 Bft)
26/10/2011 13:40 16,5 C 62 % 1011,8 hPa 0,0 mm 9,7 km/h (2 Bft) S-SO 202 0 min 0 W/m 9,2 C 16,5 C 10,4 km/h (2 Bft)
26/10/2011 13:45 16,6 C 63 % 1011,7 hPa 0,0 mm 3,6 km/h (1 Bft) S-SE 157 0 min 0 W/m 9,5 C 16,6 C 8,3 km/h (2 Bft)
26/10/2011 13:50 16,9 C 62 % 1011,7 hPa 0,0 mm 8,6 km/h (2 Bft) S 180 0 min 0 W/m 9,6 C 16,9 C 13,7 km/h (3 Bft)
26/10/2011 13:55 17,1 C 61 % 1011,7 hPa 0,0 mm 5,4 km/h (2 Bft) S-SO 202 0 min 0 W/m 9,5 C 17,1 C 11,5 km/h (2 Bft)
26/10/2011 14:00 17,2 C 60 % 1011,7 hPa 0,0 mm 4,0 km/h (1 Bft) S-SE 157 0 min 0 W/m 9,4 C 17,2 C 6,5 km/h (2 Bft)
26/10/2011 14:05 17,1 C 59 % 1011,5 hPa 0,0 mm 10,1 km/h (2 Bft) SE 135 0 min 0 W/m 9,0 C 17,1 C 12,2 km/h (2 Bft)
26/10/2011 14:10 17,2 C 59 % 1011,4 hPa 0,0 mm 9,7 km/h (2 Bft) SE 135 0 min 0 W/m 9,1 C 17,2 C 15,5 km/h (3 Bft)
26/10/2011 14:20 17,2 C 60 % 1011,2 hPa 0,0 mm 6,1 km/h (2 Bft) S 180 0 min 0 W/m 9,4 C 17,2 C 9,4 km/h (2 Bft)
26/10/2011 14:25 17,3 C 60 % 1011,2 hPa 0,0 mm 6,8 km/h (2 Bft) S 180 0 min 0 W/m 9,5 C 17,3 C 10,8 km/h (2 Bft)
26/10/2011 14:30 17,4 C 54 % 1011,3 hPa 0,0 mm 9,7 km/h (2 Bft) O 270 0 min 0 W/m 8,0 C 17,4 C 11,2 km/h (2 Bft)
26/10/2011 14:35 17,3 C 55 % 1011,3 hPa 0,0 mm 6,8 km/h (2 Bft) S-SO 202 0 min 0 W/m 8,2 C 17,3 C 9,4 km/h (2 Bft)
26/10/2011 14:40 17,3 C 56 % 1011,3 hPa 0,0 mm 5,8 km/h (2 Bft) S-SO 202 0 min 0 W/m 8,4 C 17,3 C 10,4 km/h (2 Bft)
26/10/2011 14:45 17,2 C 55 % 1011,2 hPa 0,0 mm 7,6 km/h (2 Bft) S 180 0 min 0 W/m 8,1 C 17,2 C 11,9 km/h (2 Bft)
26/10/2011 14:50 17,1 C 54 % 1011,0 hPa 0,0 mm 7,9 km/h (2 Bft) S-SE 157 0 min 0 W/m 7,7 C 17,1 C 11,9 km/h (2 Bft)
26/10/2011 14:55 16,9 C 54 % 1011,0 hPa 0,0 mm 8,3 km/h (2 Bft) S 180 0 min 0 W/m 7,5 C 16,9 C 10,1 km/h (2 Bft)
26/10/2011 15:00 16,9 C 56 % 1010,9 hPa 0,0 mm 7,2 km/h (2 Bft) SO 225 0 min 0 W/m 8,1 C 16,9 C 15,1 km/h (3 Bft)
26/10/2011 15:05 16,9 C 54 % 1010,8 hPa 0,0 mm 12,2 km/h (2 Bft) S 180 0 min 0 W/m 7,5 C 16,9 C 21,2 km/h (4 Bft)
26/10/2011 15:10 17,1 C 56 % 1010,7 hPa 0,0 mm 6,5 km/h (2 Bft) S-SO 202 0 min 0 W/m 8,3 C 17,1 C 9,4 km/h (2 Bft)
26/10/2011 15:15 17,3 C 55 % 1010,6 hPa 0,0 mm 3,2 km/h (1 Bft) S-SO 202 0 min 0 W/m 8,2 C 17,3 C 6,5 km/h (2 Bft)
26/10/2011 15:20 17,5 C 53 % 1010,6 hPa 0,0 mm 11,2 km/h (2 Bft) S-SO 202 0 min 0 W/m 7,8 C 17,5 C 15,8 km/h (3 Bft)
26/10/2011 15:25 17,4 C 52 % 1010,6 hPa 0,0 mm 5,4 km/h (2 Bft) S-SE 157 0 min 0 W/m 7,4 C 17,4 C 10,1 km/h (2 Bft)
26/10/2011 15:30 17,4 C 53 % 1010,4 hPa 0,0 mm 6,8 km/h (2 Bft) S-SO 202 0 min 0 W/m 7,7 C 17,4 C 10,8 km/h (2 Bft)
26/10/2011 15:35 17,5 C 52 % 1010,4 hPa 0,0 mm 7,2 km/h (2 Bft) O-SO 247 0 min 0 W/m 7,5 C 17,5 C 7,2 km/h (2 Bft)
26/10/2011 15:40 17,5 C 52 % 1010,4 hPa 0,0 mm 9,0 km/h (2 Bft) S 180 0 min 0 W/m 7,5 C 17,5 C 10,1 km/h (2 Bft)
26/10/2011 15:45 17,5 C 54 % 1010,3 hPa 0,0 mm 5,4 km/h (2 Bft) S-SO 202 0 min 0 W/m 8,1 C 17,5 C 14,0 km/h (3 Bft)
26/10/2011 15:50 17,5 C 53 % 1010,2 hPa 0,0 mm 6,8 km/h (2 Bft) S-SE 157 0 min 0 W/m 7,8 C 17,5 C 7,6 km/h (2 Bft)
26/10/2011 15:55 17,4 C 52 % 1010,0 hPa 0,0 mm 8,3 km/h (2 Bft) S-SE 157 0 min 0 W/m 7,4 C 17,4 C 12,2 km/h (2 Bft)
26/10/2011 16:00 17,4 C 53 % 1009,9 hPa 0,0 mm 6,8 km/h (2 Bft) S 180 0 min 0 W/m 7,7 C 17,4 C 6,8 km/h (2 Bft)
26/10/2011 16:05 17,4 C 53 % 1009,8 hPa 0,0 mm 2,9 km/h (1 Bft) S-SO 202 0 min 0 W/m 7,7 C 17,4 C 4,3 km/h (1 Bft)
26/10/2011 16:10 17,4 C 52 % 1009,7 hPa 0,0 mm 8,6 km/h (2 Bft) SO 225 0 min 0 W/m 7,4 C 17,4 C 12,2 km/h (2 Bft)
26/10/2011 16:15 17,3 C 52 % 1009,6 hPa 0,0 mm 2,2 km/h (1 Bft) S-SE 157 0 min 0 W/m 7,3 C 17,3 C 4,0 km/h (1 Bft)
26/10/2011 16:20 17,3 C 52 % 1009,6 hPa 0,0 mm 3,6 km/h (1 Bft) S-SE 157 0 min 0 W/m 7,3 C 17,3 C 6,5 km/h (2 Bft)
26/10/2011 16:25 17,1 C 55 % 1009,6 hPa 0,0 mm 3,2 km/h (1 Bft) S 180 0 min 0 W/m 8,0 C 17,1 C 4,0 km/h (1 Bft)
26/10/2011 16:30 16,9 C 55 % 1009,5 hPa 0,0 mm 4,7 km/h (1 Bft) S-SE 157 0 min 0 W/m 7,8 C 16,9 C 7,6 km/h (2 Bft)
26/10/2011 16:35 16,8 C 54 % 1009,5 hPa 0,0 mm 6,1 km/h (2 Bft) SE 135 0 min 0 W/m 7,4 C 16,8 C 9,0 km/h (2 Bft)
26/10/2011 16:40 16,6 C 54 % 1009,5 hPa 0,0 mm 8,3 km/h (2 Bft) SE 135 0 min 0 W/m 7,3 C 16,6 C 15,1 km/h (3 Bft)
26/10/2011 16:45 16,5 C 54 % 1009,4 hPa 0,0 mm 8,6 km/h (2 Bft) SE 135 0 min 0 W/m 7,2 C 16,5 C 13,7 km/h (3 Bft)
26/10/2011 16:50 16,4 C 55 % 1009,4 hPa 0,0 mm 4,3 km/h (1 Bft) SE 135 0 min 0 W/m 7,3 C 16,4 C 7,9 km/h (2 Bft)
26/10/2011 16:55 16,5 C 56 % 1009,3 hPa 0,0 mm 2,2 km/h (1 Bft) SE 135 0 min 0 W/m 7,7 C 16,5 C 3,6 km/h (1 Bft)
26/10/2011 17:00 16,6 C 55 % 1009,3 hPa 0,0 mm 2,5 km/h (1 Bft) S-SE 157 0 min 0 W/m 7,5 C 16,6 C 7,6 km/h (2 Bft)
26/10/2011 17:05 16,6 C 55 % 1009,2 hPa 0,0 mm 5,4 km/h (2 Bft) SE 135 0 min 0 W/m 7,5 C 16,6 C 9,0 km/h (2 Bft)
26/10/2011 17:10 16,5 C 55 % 1009,1 hPa 0,0 mm 9,7 km/h (2 Bft) E 90 0 min 0 W/m 7,4 C 16,5 C 13,3 km/h (3 Bft)
26/10/2011 17:15 16,4 C 54 % 1009,1 hPa 0,0 mm 9,7 km/h (2 Bft) SE 135 0 min 0 W/m 7,1 C 16,4 C 13,7 km/h (3 Bft)
26/10/2011 17:20 16,3 C 55 % 1009,0 hPa 0,0 mm 3,2 km/h (1 Bft) SE 135 0 min 0 W/m 7,2 C 16,3 C 4,0 km/h (1 Bft)
26/10/2011 17:25 16,2 C 55 % 1009,0 hPa 0,0 mm 3,2 km/h (1 Bft) E-SE 112 0 min 0 W/m 7,2 C 16,2 C 3,6 km/h (1 Bft)
26/10/2011 17:30 16,1 C 56 % 1008,9 hPa 0,0 mm 5,0 km/h (1 Bft) SE 135 0 min 0 W/m 7,3 C 16,1 C 5,4 km/h (2 Bft)
26/10/2011 17:35 15,9 C 55 % 1008,9 hPa 0,0 mm 6,8 km/h (2 Bft) SE 135 0 min 0 W/m 6,9 C 15,9 C 7,9 km/h (2 Bft)
26/10/2011 17:40 15,8 C 56 % 1008,9 hPa 0,0 mm 5,8 km/h (2 Bft) E-SE 112 0 min 0 W/m 7,0 C 15,8 C 10,8 km/h (2 Bft)
26/10/2011 17:45 15,6 C 56 % 1008,8 hPa 0,0 mm 6,8 km/h (2 Bft) SE 135 0 min 0 W/m 6,9 C 15,6 C 10,4 km/h (2 Bft)
26/10/2011 17:50 15,5 C 56 % 1008,8 hPa 0,0 mm 7,6 km/h (2 Bft) S-SE 157 0 min 0 W/m 6,8 C 15,5 C 12,2 km/h (2 Bft)
26/10/2011 17:55 15,4 C 57 % 1008,7 hPa 0,0 mm 6,8 km/h (2 Bft) E-SE 112 0 min 0 W/m 6,9 C 15,4 C 10,1 km/h (2 Bft)
26/10/2011 18:00 15,4 C 57 % 1007,6 hPa 0,0 mm 4,0 km/h (1 Bft) SE 135 0 min 0 W/m 6,9 C 15,4 C 4,0 km/h (1 Bft)
26/10/2011 18:05 15,4 C 57 % 1007,5 hPa 0,0 mm 6,8 km/h (2 Bft) SE 135 0 min 0 W/m 6,9 C 15,4 C 12,6 km/h (3 Bft)
26/10/2011 18:10 15,3 C 57 % 1007,5 hPa 0,0 mm 6,8 km/h (2 Bft) SE 135 0 min 0 W/m 6,8 C 15,3 C 8,3 km/h (2 Bft)
26/10/2011 18:15 15,3 C 58 % 1007,5 hPa 0,0 mm 3,6 km/h (1 Bft) SE 135 0 min 0 W/m 7,1 C 15,3 C 4,3 km/h (1 Bft)
26/10/2011 18:20 15,2 C 58 % 1007,4 hPa 0,0 mm 5,4 km/h (2 Bft) S-SE 157 0 min 0 W/m 7,0 C 15,2 C 8,3 km/h (2 Bft)
26/10/2011 18:25 15,1 C 57 % 1007,4 hPa 0,0 mm 6,5 km/h (2 Bft) SE 135 0 min 0 W/m 6,6 C 15,1 C 10,4 km/h (2 Bft)
26/10/2011 18:30 14,9 C 58 % 1007,4 hPa 0,0 mm 2,2 km/h (1 Bft) SE 135 0 min 0 W/m 6,7 C 14,9 C 4,3 km/h (1 Bft)
26/10/2011 18:35 14,8 C 58 % 1007,4 hPa 0,0 mm 2,9 km/h (1 Bft) SE 135 0 min 0 W/m 6,6 C 14,8 C 4,0 km/h (1 Bft)
26/10/2011 18:40 14,6 C 58 % 1007,3 hPa 0,0 mm 5,8 km/h (2 Bft) S-SE 157 0 min 0 W/m 6,4 C 14,6 C 7,6 km/h (2 Bft)
26/10/2011 18:45 14,4 C 59 % 1007,3 hPa 0,0 mm 5,0 km/h (1 Bft) E-SE 112 0 min 0 W/m 6,5 C 14,4 C 6,1 km/h (2 Bft)
26/10/2011 18:50 14,3 C 59 % 1007,3 hPa 0,0 mm 0,7 km/h (0 Bft) SE 135 0 min 0 W/m 6,4 C 14,3 C 5,0 km/h (1 Bft)
26/10/2011 18:55 14,1 C 59 % 1007,3 hPa 0,0 mm 6,8 km/h (2 Bft) S-SE 157 0 min 0 W/m 6,2 C 14,1 C 7,9 km/h (2 Bft)
26/10/2011 19:00 13,9 C 60 % 1007,3 hPa 0,0 mm 5,4 km/h (2 Bft) SE 135 0 min 0 W/m 6,3 C 13,9 C 5,4 km/h (2 Bft)
26/10/2011 19:05 13,8 C 60 % 1008,3 hPa 0,0 mm 4,7 km/h (1 Bft) E-SE 112 0 min 0 W/m 6,2 C 13,8 C 6,5 km/h (2 Bft)
26/10/2011 19:10 13,8 C 61 % 1008,2 hPa 0,0 mm 4,7 km/h (1 Bft) N 360 0 min 0 W/m 6,4 C 13,8 C 4,7 km/h (1 Bft)
26/10/2011 19:15 13,6 C 61 % 1008,3 hPa 0,0 mm 6,1 km/h (2 Bft) E-SE 112 0 min 0 W/m 6,2 C 13,6 C 8,3 km/h (2 Bft)
26/10/2011 19:20 13,4 C 62 % 1008,1 hPa 0,0 mm 3,6 km/h (1 Bft) E-SE 112 0 min 0 W/m 6,3 C 13,4 C 6,1 km/h (2 Bft)
26/10/2011 19:25 13,3 C 62 % 1008,1 hPa 0,0 mm 2,5 km/h (1 Bft) E-SE 112 0 min 0 W/m 6,2 C 13,3 C 4,3 km/h (1 Bft)
26/10/2011 19:30 13,1 C 63 % 1008,1 hPa 0,0 mm 5,0 km/h (1 Bft) E 90 0 min 0 W/m 6,2 C 13,1 C 7,2 km/h (2 Bft)
26/10/2011 19:35 12,9 C 63 % 1008,1 hPa 0,0 mm 5,0 km/h (1 Bft) E-SE 112 0 min 0 W/m 6,0 C 12,9 C 8,6 km/h (2 Bft)
26/10/2011 19:40 12,8 C 64 % 1008,1 hPa 0,0 mm 0,7 km/h (0 Bft) E 90 0 min 0 W/m 6,2 C 12,8 C 2,9 km/h (1 Bft)
26/10/2011 19:45 12,6 C 64 % 1008,1 hPa 0,0 mm 2,9 km/h (1 Bft) E-NE 67 0 min 0 W/m 6,0 C 12,6 C 6,8 km/h (2 Bft)
26/10/2011 19:50 12,5 C 65 % 1008,0 hPa 0,0 mm 3,6 km/h (1 Bft) E-SE 112 0 min 0 W/m 6,1 C 12,5 C 4,0 km/h (1 Bft)
26/10/2011 19:55 12,3 C 65 % 1008,1 hPa 0,0 mm 4,0 km/h (1 Bft) E 90 0 min 0 W/m 5,9 C 12,3 C 8,3 km/h (2 Bft)
26/10/2011 20:00 12,2 C 66 % 1007,9 hPa 0,0 mm 0,7 km/h (0 Bft) E 90 0 min 0 W/m 6,0 C 12,2 C 2,9 km/h (1 Bft)
26/10/2011 20:05 12,1 C 66 % 1007,8 hPa 0,0 mm 1,1 km/h (1 Bft) E-SE 112 0 min 0 W/m 5,9 C 12,1 C 3,2 km/h (1 Bft)
26/10/2011 20:10 11,9 C 67 % 1007,8 hPa 0,0 mm 0,4 km/h (0 Bft) E-SE 112 0 min 0 W/m 6,0 C 11,9 C 3,2 km/h (1 Bft)
26/10/2011 20:15 11,8 C 67 % 1007,8 hPa 0,0 mm 0,7 km/h (0 Bft) E 90 0 min 0 W/m 5,9 C 11,8 C 3,6 km/h (1 Bft)
26/10/2011 20:20 11,6 C 67 % 1007,7 hPa 0,0 mm 2,5 km/h (1 Bft) E-SE 112 0 min 0 W/m 5,7 C 11,6 C 4,3 km/h (1 Bft)
26/10/2011 20:25 11,5 C 68 % 1007,8 hPa 0,0 mm 4,0 km/h (1 Bft) E-SE 112 0 min 0 W/m 5,8 C 11,5 C 7,6 km/h (2 Bft)
26/10/2011 20:30 11,4 C 68 % 1007,7 hPa 0,0 mm 2,5 km/h (1 Bft) E 90 0 min 0 W/m 5,7 C 11,4 C 4,3 km/h (1 Bft)
26/10/2011 20:35 11,3 C 68 % 1007,8 hPa 0,0 mm 1,8 km/h (1 Bft) E 90 0 min 0 W/m 5,6 C 11,3 C 4,0 km/h (1 Bft)
26/10/2011 20:40 11,2 C 69 % 1007,7 hPa 0,0 mm 3,2 km/h (1 Bft) SE 135 0 min 0 W/m 5,7 C 11,2 C 4,3 km/h (1 Bft)
26/10/2011 20:45 11,1 C 69 % 1007,7 hPa 0,0 mm 4,7 km/h (1 Bft) E-SE 112 0 min 0 W/m 5,6 C 11,1 C 9,7 km/h (2 Bft)
26/10/2011 20:50 11,1 C 69 % 1007,6 hPa 0,0 mm 2,9 km/h (1 Bft) E-SE 112 0 min 0 W/m 5,6 C 11,1 C 4,3 km/h (1 Bft)
26/10/2011 20:55 10,9 C 69 % 1007,5 hPa 0,0 mm 1,1 km/h (1 Bft) E-SE 112 0 min 0 W/m 5,4 C 10,9 C 4,0 km/h (1 Bft)
26/10/2011 21:00 10,8 C 69 % 1007,6 hPa 0,0 mm 2,9 km/h (1 Bft) E-SE 112 0 min 0 W/m 5,3 C 10,8 C 6,1 km/h (2 Bft)
26/10/2011 21:05 10,8 C 69 % 1007,5 hPa 0,0 mm 1,1 km/h (1 Bft) E 90 0 min 0 W/m 5,3 C 10,8 C 4,3 km/h (1 Bft)
26/10/2011 21:10 10,6 C 70 % 1007,5 hPa 0,0 mm 1,1 km/h (1 Bft) E 90 0 min 0 W/m 5,4 C 10,6 C 2,9 km/h (1 Bft)
26/10/2011 21:15 10,6 C 70 % 1007,5 hPa 0,0 mm 3,6 km/h (1 Bft) E-SE 112 0 min 0 W/m 5,4 C 10,6 C 7,6 km/h (2 Bft)
26/10/2011 21:20 10,6 C 70 % 1007,4 hPa 0,0 mm 4,0 km/h (1 Bft) SE 135 0 min 0 W/m 5,4 C 10,6 C 5,8 km/h (2 Bft)
26/10/2011 21:25 10,8 C 70 % 1007,3 hPa 0,0 mm 1,8 km/h (1 Bft) E-SE 112 0 min 0 W/m 5,6 C 10,8 C 4,0 km/h (1 Bft)
26/10/2011 21:30 10,8 C 69 % 1007,4 hPa 0,0 mm 1,4 km/h (1 Bft) E-SE 112 0 min 0 W/m 5,3 C 10,8 C 3,6 km/h (1 Bft)
26/10/2011 21:35 10,9 C 69 % 1007,3 hPa 0,0 mm 6,8 km/h (2 Bft) E 90 0 min 0 W/m 5,4 C 10,9 C 9,7 km/h (2 Bft)
26/10/2011 21:40 11,0 C 69 % 1007,3 hPa 0,0 mm 4,3 km/h (1 Bft) S-SE 157 0 min 0 W/m 5,5 C 11,0 C 7,9 km/h (2 Bft)
26/10/2011 21:45 11,0 C 68 % 1007,4 hPa 0,0 mm 5,4 km/h (2 Bft) SE 135 0 min 0 W/m 5,3 C 11,0 C 7,2 km/h (2 Bft)
26/10/2011 21:50 11,1 C 67 % 1007,2 hPa 0,0 mm 3,2 km/h (1 Bft) E-SE 112 0 min 0 W/m 5,2 C 11,1 C 6,8 km/h (2 Bft)
26/10/2011 21:55 11,2 C 67 % 1007,2 hPa 0,0 mm 2,9 km/h (1 Bft) S-SE 157 0 min 0 W/m 5,3 C 11,2 C 6,5 km/h (2 Bft)
26/10/2011 22:00 11,2 C 67 % 1007,2 hPa 0,0 mm 5,8 km/h (2 Bft) SE 135 0 min 0 W/m 5,3 C 11,2 C 5,8 km/h (2 Bft)
26/10/2011 22:05 11,3 C 66 % 1007,2 hPa 0,0 mm 4,0 km/h (1 Bft) SE 135 0 min 0 W/m 5,2 C 11,3 C 7,2 km/h (2 Bft)
26/10/2011 22:10 11,4 C 66 % 1007,3 hPa 0,0 mm 4,3 km/h (1 Bft) E-SE 112 0 min 0 W/m 5,3 C 11,4 C 4,3 km/h (1 Bft)
26/10/2011 22:15 11,5 C 66 % 1007,3 hPa 0,0 mm 6,1 km/h (2 Bft) SE 135 0 min 0 W/m 5,4 C 11,5 C 6,1 km/h (2 Bft)
26/10/2011 22:20 11,5 C 65 % 1007,3 hPa 0,0 mm 4,7 km/h (1 Bft) SE 135 0 min 0 W/m 5,2 C 11,5 C 7,9 km/h (2 Bft)
26/10/2011 22:25 11,6 C 65 % 1007,2 hPa 0,0 mm 4,0 km/h (1 Bft) E-SE 112 0 min 0 W/m 5,2 C 11,6 C 9,4 km/h (2 Bft)
26/10/2011 22:30 11,6 C 65 % 1007,2 hPa 0,0 mm 5,4 km/h (2 Bft) SE 135 0 min 0 W/m 5,2 C 11,6 C 6,8 km/h (2 Bft)
_ Min-Heure 03:02 16:20 22:30 - 20:10 - - - - 04:50 04:00 12:20
Minimum _ 7,3 C 52 % 1007,2 hPa - 0,4 km/h (0 Bft) - - - - 5,0 C 5,5 C 2,5 km/h (1 Bft)
_ Max-Heure 15:50 01:00 13:05 22:30 00:05 - - 22:30 22:30 12:50 15:50 15:05
Maximum _ 17,5 C 88 % 1012,2 hPa 0,0 mm 14,0 km/h
S-SO (3 Bft)
- - 0 min 0 W/m 10,1 C 17,5 C 21,2 km/h
S (4 Bft)
Moyenne _ 11,7 C 73 % 1009,7 hPa #0,0 mm 6,1 km/h (2 Bft) S-SO - #0 min. 0 W/m 6,7 C 11,3 C 9,3 km/h (2 Bft)
Saint Bonnet de Bellac- Haute Vienne - France